Regional Weather Roundup
Issued by NWS

Home | Current Version | Previous Version | Graphics & Text | Print | Product List | Glossary On
Versions: 1 2 3 4 5 6 7 8 9 10 11 12 13 14 15 16 17 18 19 20 21 22 23 24 25 26 27 28 29 30 31 32 33 34 35 36 37 38 39 40 41 42 43 44 45 46 47 48 49
000
ASUS45 KBOU 221307
RWRCO

WEATHER ROUNDUP FOR COLORADO
NATIONAL WEATHER SERVICE DENVER/BOULDER CO
700 AM MDT MON SEP 22 2014

NOTE: "FAIR" INDICATES FEW OR NO CLOUDS BELOW 12000 FEET WITH NO
SIGNIFICANT WEATHER AND/OR OBSTRUCTIONS TO VISIBILITY.

COZ001>005-013-030-031-221400-
...NORTHWEST COLORADO...

CITY           SKY/WX    TMP DP  RH WIND       PRES   REMARKS
CRAIG          PTCLDY    50  47  89 SW3       30.27S
HAYDEN         CLOUDY    54  46  76 CALM      30.28S
MEEKER         FOG       49  48  97 VRB3      30.27S VSB 3/4
MOUNT WERNER   NOT AVBL
STEAMBOAT SPGS CLOUDY    50  49  95 CALM      30.30R
WALDEN         MOCLDY    50  45  81 CALM      30.36F
$$

COZ006>008-011-221400-
...WEST CENTRAL VALLEYS...

CITY           SKY/WX    TMP DP  RH WIND       PRES   REMARKS
GRAND JUNCTION MOCLDY    60  56  86 SE6       30.19F
MONTROSE       MOCLDY    59  57  93 CALM      30.28F
EAGLE          CLOUDY    54  54 100 W5        30.34R
RIFLE          MOCLDY    57  55  93 CALM      30.24S
DELTA          RAIN      60  59  95 E5        30.24S
NUCLA          FOG       55  54  94 CALM      30.31S VSB 1/4
$$

COZ017>023-064>068-221400-
...SOUTHWEST COLORADO...

CITY           SKY/WX    TMP DP  RH WIND       PRES   REMARKS
DURANGO        LGT RAIN  58  57  97 NE5       30.35S
CORTEZ         MOCLDY    58  57  97 CALM      30.29R
PAGOSA SPRINGS HVY RAIN  56  55  98 NW6       30.41R
TELLURIDE      NOT AVBL
WOLF CREEK PAS RAIN      41  41 100 SW14G25   30.61R VSB<1/4
$$

COZ009-010-012-014-032>034-037-058>063-221400-
...CENTRAL COLORADO...

CITY           SKY/WX    TMP DP  RH WIND       PRES   REMARKS
ASPEN          LGT RAIN  52  51  97 CALM      30.37R
BUENA VISTA    HVY RAIN  51  49  93 CALM      30.42R
COPPER MTN     CLOUDY    45  37  76 S16       30.60S
BERTHOUD PASS  FOG       36  34  93 N5G10     30.62F VSB<1/4
COTTONWOOD PAS RAIN      50  46  87 W13       30.50R
GUNNISON       CLOUDY    54  48  82 N3        30.41S
KREMMLING      RAIN      52  48  87 E6        30.36F
LEADVILLE      CLOUDY    46  46 100 S6        30.48R
MONARCH PASS   LGT RAIN  41  41 100 SW25G32   30.70S VSB<1/4
SALIDA         CLOUDY    53  51  92 CALM      30.45R
SUNLIGHT       CLOUDY    45  45 100 CALM      30.53S FOG
WILKERSON PASS NOT AVBL
$$

COZ069>075-221400-
...SAN LUIS VALLEY/SANGRE DE CRISTO MOUNTAINS...

CITY           SKY/WX    TMP DP  RH WIND       PRES   REMARKS
ALAMOSA        CLOUDY    58  50  75 S10       30.39R
LA VETA PASS   MOCLDY    45  43  93 S8G17     30.52S
SAGUACHE       NOT AVBL
$$

COZ035-036-038>040-221400-
...NORTHERN COLORADO FRONT RANGE...

CITY           SKY/WX    TMP DP  RH WIND       PRES   REMARKS
DENVER INTL AP CLOUDY    61  49  64 S21G26    30.19S
DMNS CITY PARK   N/A     60  50  70 SW5       30.19F
AURORA         MOCLDY    59  49  68 S18G24    30.21F
FRONT RANGE AP NOT AVBL
ERIE MUNI ARPT NOT AVBL
BOULDER MUN AP CLOUDY    57  52  82 CALM      30.18F
CENTENNIAL     LGT RAIN  58  50  75 S10       30.23R
BROOMFIELD     MOCLDY    57  54  88 CALM      30.21F
FORT COLLINS   CLOUDY    55  46  71 NW5       30.22R
LONGMONT       CLOUDY    58  53  82 N3        30.20F
$$

COZ041-046-047-076>085-087-088-221400-
...PIKES PEAK/PALMER DIVIDE AND SOUTHERN FOOTHILLS...

CITY           SKY/WX    TMP DP  RH WIND       PRES   REMARKS
COLO. SPRINGS  CLOUDY    55  45  68 E3        30.30F
A. F. ACADEMY  CLOUDY    54  45  71 SE6       30.31S
ELLICOTT       NOT AVBL
FALCON         CLOUDY    52  45  78 SW3       30.33S
FORT CARSON    MOCLDY    52  45  76 N3        30.27F
LIMON          MOCLDY    51  43  74 SE12      30.26F
MONUMENT HILL  CLOUDY    52  46  82 S10G16    30.30S
TRINIDAD       MOCLDY    61  54  77 SW9       30.28F
$$

COZ042>045-048>051-090-091-221400-
...NORTHEAST COLORADO...

CITY           SKY/WX    TMP DP  RH WIND       PRES   REMARKS
GREELEY ARPT   CLOUDY    57  43  58 E3        30.19R
AKRON          MOCLDY    61  44  53 S21G37    30.21F
BURLINGTON     MOCLDY    57  41  55 S17G26    30.27F
WRAY           CLOUDY    57  42  56 E7        30.24F
STERLING       MOCLDY    59  46  63 S5        30.17F
HOLYOKE        PTCLDY    61  43  51 S14       30.23F
FORT MORGAN    MOCLDY    59  45  59 SE8       30.19S
$$

COZ086-089-092>099-221400-
...SOUTHEAST COLORADO...

CITY           SKY/WX    TMP DP  RH WIND       PRES   REMARKS
PUEBLO         MOCLDY    58  50  75 NE5       30.23R
LA JUNTA       PTCLDY    57  48  72 E9        30.23F
LAMAR          CLEAR     54  47  77 SE12      30.25S
SPRINGFIELD      N/A     58  52  80 S14       30.31R
$$


USA.gov is the U.S. government's official web portal to all federal, state and local government web resources and services.